Regional Weather Roundup
Issued by NWS Green Bay, WI

Home | Current Version | Previous Version | Text Only | Print | Product List | Glossary On
Versions: 1 2 3 4 5 6 7 8 9 10 11 12 13 14 15 16 17 18 19 20 21 22 23 24 25 26 27 28 29 30 31 32 33 34 35 36 37 38 39 40 41 42 43 44 45 46 47 48 49 50
000
ASUS43 KGRB 191859
RWRGRB

NORTH-CENTRAL AND NORTHEAST WISCONSIN REGIONAL WEATHER ROUNDUP
NATIONAL WEATHER SERVICE GREEN BAY WI
200 PM CDT SUN APR 19 2015

WIZ005-009-010>012-018-019-192000-
NORTH CENTRAL WISCONSIN

CITY           SKY/WX    TMP DP  RH WIND       PRES   REMARKS
IRONWOOD       CLOUDY    54  39  58 S7        29.61F
MANITOWISH WTR NOT AVBL
ARBOR VITAE    NOT AVBL
EAGLE RIVER    NOT AVBL
LAND O LAKES   NOT AVBL
RHINELANDER    CLOUDY    58  34  40 SE12      29.69F
PHILLIPS       NOT AVBL
ANTIGO         NOT AVBL
TOMAHAWK       NOT AVBL
MERRILL        NOT AVBL
$$

WIZ013-073-192000-
NORTHEAST WISCONSIN

CITY           SKY/WX    TMP DP  RH WIND       PRES   REMARKS
IRON MOUNTAIN  PTSUNNY   51  31  46 SE12      29.77F
MARINETTE      PTSUNNY   48  30  49 E10       29.78F
$$

WIZ017-030-035>037-045-192000-
CENTRAL WISCONSIN

CITY           SKY/WX    TMP DP  RH WIND       PRES   REMARKS
MEDFORD        NOT AVBL
WAUSAU         CLOUDY    63  36  36 SE9       29.66F
MOSINEE        NOT AVBL
MARSHFIELD     CLOUDY    66  38  35 SE12      29.65F
WISC RAPIDS    CLOUDY    69  35  28 SE12      29.66F
STEVENS POINT  NOT AVBL
WAUPACA        NOT AVBL
SHAWANO        NOT AVBL
CLINTONVILLE   NOT AVBL
$$

WIZ038-039-048-051-192000-
FOX VALLEY

CITY           SKY/WX    TMP DP  RH WIND       PRES   REMARKS
NWS GREEN BAY  MOSUNNY   65  36  34 SE13      29.73F
APPLETON       PTSUNNY   63  32  31 SE13G18   29.72F
OSHKOSH        PTSUNNY   65  35  33 SE14G24   29.69F
FOND DU LAC    PTSUNNY   64  33  31 SE18      29.68F
$$

WIZ022-050-052-192000-
EAST CENTRAL WISCONSIN

CITY           SKY/WX    TMP DP  RH WIND       PRES   REMARKS
STURGEON BAY   MOSUNNY   57  30  35 E7        29.78F
MANITOWOC      NOT AVBL
SHEBOYGAN      MOSUNNY   62  33  33 SE7       29.72F
$$

LMZ563-521-522-541>543-192000-
LAKESHORE

STATION/POSITION TIME  TEMP    WIND        PRES    VSBY  WAVE
                       AIR SEA DIR/SP/G                  HT/PER
                 (UTC) (F)     (DEG/KT/KT) (MB)    (MI)  (FT/S)
SHEBOYGAN LKSHOR 1800   47      CALM  /  1 1008.4F
KEWAUNEE LKSHORE 1800   44      30/ 11/ 15 1007.7F
NORTHPORT PIER   1800   41      60/ 12/ 16 1010.5F
STURGEON BAY CG  1800   46     360/  9     1022.6      6   1
CHAMBERS ISLAND  1800   39      10/  7/  8 1010.8F
MENOMINEE LKSHOR 1800   40      10/ 14/ 16 1009.8F
$$


USA.gov is the U.S. government's official web portal to all federal, state and local government web resources and services.